Location: Alphen
(52.1351°N, 4.6549°E)
Time: 01:57:41
(UTC+00:00)

Cosmos 2150 Rocket - Pass Details

Date: 27 January 2021
Orbit: 748 x 808 km, 74.0° (Epoch: 27 February)

Event Time Altitude Azimuth Distance (km) Brightness Sun altitude
Exits shadow 04:33:49 47° 351° (N) 1,042 4.5 -26.7°
Maximum altitude 04:35:21 74° 63° (ENE) 827 4.2 -26.5°
Drops below altitude 10° 04:40:45 10° 149° (SSE) 2,370 6.9 -25.6°
Sets 04:43:10 0° 151° (SSE) 3,303 7.6 -25.3°
